| time (UTC) | temp F | wind direction | speed MPH | gust MPH | rain 1hr in | rain 24hr in | rain mn in | humidity % | barometer mb |
| 20260506000445 | 83 | 114 | 1.0 | 3.0 | 0.00 | 0.00 | 0.00 | 73 | 1006.7 |
| 20260505235940 | 83 | 115 | 1.0 | 2.0 | 0.00 | 0.00 | 0.00 | 72 | 1006.4 |
| 20260505235438 | 84 | 83 | 1.0 | 2.0 | 0.00 | 0.00 | 0.00 | 72 | 1006.5 |
| 20260505234935 | 84 | 60 | 1.0 | 3.0 | 0.00 | 0.00 | 0.00 | 71 | 1006.5 |
| 20260505234433 | 84 | 96 | 0.0 | 2.0 | 0.00 | 0.00 | 0.00 | 71 | 1006.5 |
| 20260505233929 | 84 | 134 | 0.0 | 2.0 | 0.00 | 0.00 | 0.00 | 70 | 1006.3 |
| 20260505233427 | 84 | 42 | 4.0 | 4.0 | 0.00 | 0.00 | 0.00 | 71 | 1006.4 |
| 20260505232924 | 84 | 72 | 1.0 | 3.0 | 0.00 | 0.00 | 0.00 | 70 | 1006.4 |
| 20260505232422 | 84 | 100 | 2.0 | 4.0 | 0.00 | 0.00 | 0.00 | 69 | 1006.4 |
| 20260505231918 | 84 | 68 | 4.0 | 4.0 | 0.00 | 0.00 | 0.00 | 68 | 1006.3 |
| 20260505231416 | 84 | 99 | 2.0 | 2.0 | 0.00 | 0.00 | 0.00 | 69 | 1006.4 |
| 20260505230914 | 84 | 83 | 2.0 | 3.0 | 0.00 | 0.00 | 0.00 | 68 | 1006.5 |
| 20260505230412 | 84 | 43 | 0.0 | 2.0 | 0.00 | 0.00 | 0.00 | 68 | 1006.3 |
| 20260505225908 | 84 | 121 | 2.0 | 2.0 | 0.00 | 0.00 | 0.00 | 68 | 1006.2 |
| 20260505225405 | 85 | 63 | 2.0 | 2.0 | 0.00 | 0.00 | 0.00 | 69 | 1006.2 |
| 20260505224900 | 85 | 121 | 1.0 | 3.0 | 0.00 | 0.00 | 0.00 | 68 | 1006.3 |
| 20260505224358 | 85 | 202 | 1.0 | 2.0 | 0.00 | 0.00 | 0.00 | 68 | 1006.4 |
| 20260505223854 | 85 | 61 | 3.0 | 3.0 | 0.00 | 0.00 | 0.00 | 68 | 1006.1 |
| 20260505223351 | 85 | 92 | 2.0 | 2.0 | 0.00 | 0.00 | 0.00 | 69 | 1006.3 |
| 20260505222847 | 85 | 190 | 2.0 | 3.0 | 0.00 | 0.00 | 0.00 | 68 | 1006.2 |
| 20260505222344 | 85 | 124 | 1.0 | 3.0 | 0.00 | 0.00 | 0.00 | 68 | 1006.0 |
| 20260505221841 | 85 | 81 | 2.0 | 4.0 | 0.00 | 0.00 | 0.00 | 68 | 1006.2 |
| 20260505221338 | 86 | 67 | 2.0 | 3.0 | 0.00 | 0.00 | 0.00 | 66 | 1006.3 |
| 20260505220835 | 86 | 183 | 1.0 | 4.0 | 0.00 | 0.00 | 0.00 | 66 | 1006.3 |
| 20260505220331 | 86 | 86 | 0.0 | 4.0 | 0.00 | 0.00 | 0.00 | 66 | 1006.2 |
| 20260505215830 | 86 | 24 | 3.0 | 4.0 | 0.00 | 0.00 | 0.00 | 65 | 1006.3 |
| 20260505215327 | 86 | 23 | 4.0 | 6.0 | 0.00 | 0.00 | 0.00 | 65 | 1006.3 |
| 20260505214825 | 85 | 90 | 2.0 | 4.0 | 0.00 | 0.00 | 0.00 | 65 | 1006.7 |
| 20260505214322 | 85 | 102 | 2.0 | 5.0 | 0.00 | 0.00 | 0.00 | 65 | 1006.9 |
| 20260505213819 | 86 | 54 | 2.0 | 3.0 | 0.00 | 0.00 | 0.00 | 65 | 1006.6 |
| 20260505213317 | 85 | 122 | 0.0 | 3.0 | 0.00 | 0.00 | 0.00 | 65 | 1006.7 |
| 20260505212813 | 85 | 175 | 0.0 | 2.0 | 0.00 | 0.00 | 0.00 | 67 | 1007.0 |
| 20260505212310 | 85 | 138 | 0.0 | 2.0 | 0.00 | 0.00 | 0.00 | 66 | 1007.1 |
| 20260505211806 | 86 | 76 | 1.0 | 3.0 | 0.00 | 0.00 | 0.00 | 66 | 1006.9 |
| 20260505211304 | 86 | 15 | 0.0 | 5.0 | 0.00 | 0.00 | 0.00 | 65 | 1006.7 |
| 20260505210800 | 86 | 63 | 0.0 | 4.0 | 0.00 | 0.00 | 0.00 | 65 | 1006.9 |
| 20260505210257 | 86 | 108 | 0.0 | 4.0 | 0.00 | 0.00 | 0.00 | 64 | 1007.2 |
| 20260505205754 | 87 | 150 | 1.0 | 3.0 | 0.00 | 0.00 | 0.00 | 64 | 1006.9 |
| 20260505205253 | 87 | 131 | 2.0 | 3.0 | 0.00 | 0.00 | 0.00 | 63 | 1007.0 |
| 20260505204749 | 88 | 93 | 1.0 | 4.0 | 0.00 | 0.00 | 0.00 | 63 | 1007.1 |
| 20260505204247 | 88 | 169 | 0.0 | 3.0 | 0.00 | 0.00 | 0.00 | 62 | 1007.1 |
| 20260505203744 | 87 | 76 | 0.0 | 6.0 | 0.00 | 0.00 | 0.00 | 64 | 1007.1 |
| 20260505203241 | 86 | 87 | 1.0 | 3.0 | 0.00 | 0.00 | 0.00 | 65 | 1007.4 |
| 20260505202736 | 86 | 116 | 2.0 | 2.0 | 0.00 | 0.00 | 0.00 | 64 | 1007.5 |
| 20260505202233 | 87 | 59 | 3.0 | 4.0 | 0.00 | 0.00 | 0.00 | 64 | 1007.6 |
| 20260505201729 | 87 | 177 | 2.0 | 3.0 | 0.00 | 0.00 | 0.00 | 64 | 1007.8 |
| 20260505201227 | 87 | 76 | 1.0 | 4.0 | 0.00 | 0.00 | 0.00 | 64 | 1007.9 |
| 20260505200725 | 86 | 58 | 0.0 | 3.0 | 0.00 | 0.00 | 0.00 | 65 | 1007.9 |
| 20260505200222 | 85 | 98 | 1.0 | 4.0 | 0.00 | 0.00 | 0.00 | 66 | 1008.0 |
| 20260505195717 | 85 | 225 | 1.0 | 4.0 | 0.00 | 0.00 | 0.00 | 67 | 1007.9 |
| 20260505195215 | 85 | 121 | 1.0 | 3.0 | 0.00 | 0.00 | 0.00 | 67 | 1008.1 |
| 20260505194712 | 84 | 85 | 2.0 | 2.0 | 0.00 | 0.00 | 0.00 | 70 | 1008.2 |
| 20260505194209 | 84 | 93 | 2.0 | 3.0 | 0.00 | 0.00 | 0.00 | 69 | 1008.1 |
| 20260505193704 | 85 | 91 | 2.0 | 3.0 | 0.00 | 0.00 | 0.00 | 68 | 1008.3 |
| 20260505193202 | 85 | 151 | 2.0 | 3.0 | 0.00 | 0.00 | 0.00 | 67 | 1008.4 |
| 20260505192700 | 84 | 95 | 1.0 | 3.0 | 0.00 | 0.00 | 0.00 | 68 | 1008.3 |
| 20260505192158 | 83 | 55 | 0.0 | 3.0 | 0.00 | 0.00 | 0.00 | 71 | 1008.4 |
| 20260505191656 | 83 | 130 | 0.0 | 4.0 | 0.00 | 0.00 | 0.00 | 70 | 1008.3 |
| 20260505191154 | 84 | 65 | 1.0 | 3.0 | 0.00 | 0.00 | 0.00 | 69 | 1008.2 |
| 20260505190649 | 84 | 78 | 1.0 | 2.0 | 0.00 | 0.00 | 0.00 | 69 | 1008.3 |
| 20260505190149 | 85 | 11 | 3.0 | 5.0 | 0.00 | 0.00 | 0.00 | 67 | 1008.2 |
| 20260505185646 | 84 | 21 | 1.0 | 2.0 | 0.00 | 0.00 | 0.00 | 69 | 1008.3 |
| 20260505185143 | 82 | 171 | 0.0 | 3.0 | 0.00 | 0.00 | 0.00 | 71 | 1008.5 |
| 20260505184639 | 83 | 117 | 1.0 | 2.0 | 0.00 | 0.00 | 0.00 | 72 | 1008.6 |
| 20260505184136 | 81 | 59 | 2.0 | 3.0 | 0.00 | 0.00 | 0.00 | 73 | 1008.7 |
| 20260505183633 | 81 | 57 | 2.0 | 2.0 | 0.00 | 0.00 | 0.00 | 75 | 1008.7 |
| 20260505183131 | 79 | 104 | 2.0 | 3.0 | 0.00 | 0.00 | 0.00 | 77 | 1009.0 |
| 20260505182627 | 79 | 95 | 3.0 | 3.0 | 0.00 | 0.00 | 0.00 | 76 | 1009.0 |
| 20260505182124 | 79 | 106 | 2.0 | 3.0 | 0.00 | 0.00 | 0.00 | 76 | 1009.0 |
| 20260505181620 | 79 | 47 | 5.0 | 5.0 | 0.00 | 0.00 | 0.00 | 76 | 1009.1 |
| 20260505181118 | 79 | 53 | 2.0 | 5.0 | 0.00 | 0.00 | 0.00 | 76 | 1009.0 |
| 20260505180614 | 79 | 104 | 1.0 | 3.0 | 0.00 | 0.00 | 0.00 | 77 | 1009.1 |
| 20260505180111 | 79 | 75 | 1.0 | 3.0 | 0.00 | 0.00 | 0.00 | 78 | 1009.1 |
| 20260505175607 | 78 | 59 | 2.0 | 3.0 | 0.00 | 0.00 | 0.00 | 79 | 1009.2 |
| 20260505175104 | 78 | 110 | 1.0 | 4.0 | 0.00 | 0.00 | 0.00 | 78 | 1009.3 |
| 20260505174600 | 78 | 88 | 4.0 | 4.0 | 0.00 | 0.00 | 0.00 | 79 | 1009.3 |
| 20260505174056 | 78 | 96 | 1.0 | 3.0 | 0.00 | 0.00 | 0.00 | 78 | 1009.6 |
| 20260505173553 | 78 | 45 | 0.0 | 3.0 | 0.00 | 0.00 | 0.00 | 79 | 1009.3 |
| 20260505173050 | 77 | 73 | 2.0 | 4.0 | 0.00 | 0.00 | 0.00 | 80 | 1009.3 |
| 20260505172548 | 77 | 66 | 3.0 | 5.0 | 0.00 | 0.00 | 0.00 | 79 | 1009.6 |
| 20260505172044 | 77 | 82 | 2.0 | 5.0 | 0.00 | 0.00 | 0.00 | 79 | 1009.5 |
| 20260505171539 | 77 | 68 | 0.0 | 4.0 | 0.00 | 0.00 | 0.00 | 80 | 1009.4 |
| 20260505171036 | 77 | 110 | 2.0 | 4.0 | 0.00 | 0.00 | 0.00 | 80 | 1009.5 |
| 20260505170533 | 77 | 99 | 0.0 | 3.0 | 0.00 | 0.00 | 0.00 | 80 | 1009.5 |
| 20260505170029 | 77 | 78 | 1.0 | 3.0 | 0.00 | 0.00 | 0.00 | 80 | 1009.6 |
| 20260505165525 | 76 | 94 | 2.0 | 4.0 | 0.00 | 0.00 | 0.00 | 81 | 1009.5 |
| 20260505165020 | 76 | 66 | 6.0 | 6.0 | 0.00 | 0.00 | 0.00 | 82 | 1009.5 |
| 20260505164517 | 75 | 65 | 3.0 | 3.0 | 0.00 | 0.00 | 0.00 | 83 | 1009.6 |
| 20260505164015 | 75 | 150 | 2.0 | 4.0 | 0.00 | 0.00 | 0.00 | 83 | 1009.6 |
| 20260505163513 | 75 | 96 | 2.0 | 3.0 | 0.00 | 0.00 | 0.00 | 84 | 1009.5 |
| 20260505163010 | 75 | 88 | 3.0 | 3.0 | 0.00 | 0.00 | 0.00 | 84 | 1009.4 |
| 20260505162503 | 74 | 95 | 2.0 | 3.0 | 0.00 | 0.00 | 0.00 | 85 | 1009.5 |
| 20260505162000 | 74 | 74 | 0.0 | 2.0 | 0.00 | 0.00 | 0.00 | 86 | 1009.4 |
| 20260505161456 | 74 | 88 | 1.0 | 3.0 | 0.00 | 0.00 | 0.00 | 86 | 1009.7 |
| 20260505160953 | 73 | 48 | 1.0 | 3.0 | 0.00 | 0.00 | 0.00 | 87 | 1009.5 |
| 20260505160452 | 73 | 66 | 2.0 | 4.0 | 0.00 | 0.00 | 0.00 | 87 | 1009.8 |
| 20260505152928 | 72 | 101 | 2.0 | 4.0 | 0.00 | 0.00 | 0.00 | 89 | 1009.8 |
| 20260505152426 | 72 | 111 | 2.0 | 3.0 | 0.00 | 0.00 | 0.00 | 88 | 1009.7 |
| 20260505151925 | 72 | 120 | 2.0 | 4.0 | 0.00 | 0.00 | 0.00 | 89 | 1009.6 |
| 20260505151421 | 72 | 86 | 3.0 | 4.0 | 0.00 | 0.00 | 0.00 | 89 | 1009.5 |
| 20260505150919 | 72 | 59 | 2.0 | 5.0 | 0.00 | 0.00 | 0.00 | 88 | 1009.5 |
| 20260505150416 | 72 | 105 | 2.0 | 4.0 | 0.00 | 0.00 | 0.00 | 88 | 1009.3 |
| 20260505140346 | 72 | 130 | 2.0 | 4.0 | 0.00 | 0.00 | 0.00 | 89 | 1009.2 |
| 20260505130309 | 71 | 160 | 0.0 | 4.0 | 0.00 | 0.00 | 0.00 | 90 | 1008.7 |
| 20260505124759 | 71 | 110 | 4.0 | 5.0 | 0.00 | 0.00 | 0.00 | 90 | 1008.5 |
| 20260505124256 | 71 | 98 | 0.0 | 5.0 | 0.00 | 0.00 | 0.00 | 90 | 1008.4 |
| 20260505123752 | 71 | 134 | 2.0 | 3.0 | 0.00 | 0.00 | 0.00 | 90 | 1008.4 |
| 20260505123249 | 71 | 117 | 2.0 | 6.0 | 0.00 | 0.00 | 0.00 | 90 | 1008.2 |
| 20260505122745 | 71 | 94 | 1.0 | 4.0 | 0.00 | 0.00 | 0.00 | 90 | 1008.1 |
| 20260505122243 | 71 | 88 | 2.0 | 3.0 | 0.00 | 0.00 | 0.00 | 90 | 1008.2 |
| 20260505121739 | 71 | 99 | 2.0 | 3.0 | 0.00 | 0.00 | 0.00 | 90 | 1008.0 |
| 20260505121236 | 71 | 77 | 1.0 | 4.0 | 0.00 | 0.00 | 0.00 | 90 | 1008.0 |
| 20260505120732 | 71 | 76 | 3.0 | 5.0 | 0.00 | 0.00 | 0.00 | 90 | 1007.9 |
| 20260505120228 | 71 | 111 | 3.0 | 4.0 | 0.00 | 0.00 | 0.00 | 89 | 1007.9 |
| 20260505115727 | 71 | 86 | 3.0 | 5.0 | 0.00 | 0.00 | 0.00 | 89 | 1007.8 |
| 20260505115225 | 71 | 142 | 2.0 | 3.0 | 0.00 | 0.00 | 0.00 | 89 | 1007.8 |
| 20260505114722 | 71 | 75 | 3.0 | 4.0 | 0.00 | 0.00 | 0.00 | 89 | 1007.9 |
| 20260505114218 | 71 | 92 | 2.0 | 6.0 | 0.00 | 0.00 | 0.00 | 89 | 1008.0 |
| 20260505113715 | 71 | 57 | 2.0 | 4.0 | 0.00 | 0.00 | 0.00 | 89 | 1007.9 |
| 20260505113211 | 71 | 106 | 2.0 | 3.0 | 0.00 | 0.00 | 0.00 | 89 | 1007.7 |
| 20260505112708 | 71 | 69 | 2.0 | 4.0 | 0.00 | 0.00 | 0.00 | 89 | 1007.9 |
| 20260505112206 | 71 | 128 | 2.0 | 3.0 | 0.00 | 0.00 | 0.00 | 89 | 1007.8 |
| 20260505111705 | 70 | 63 | 1.0 | 3.0 | 0.00 | 0.00 | 0.00 | 89 | 1007.7 |
| 20260505111201 | 70 | 77 | 2.0 | 3.0 | 0.00 | 0.00 | 0.00 | 89 | 1008.0 |
| 20260505110657 | 71 | 78 | 1.0 | 4.0 | 0.00 | 0.00 | 0.00 | 89 | 1008.2 |
| 20260505110155 | 71 | 92 | 2.0 | 3.0 | 0.00 | 0.00 | 0.00 | 89 | 1008.1 |
| 20260505102131 | 71 | 72 | 1.0 | 6.0 | 0.00 | 0.00 | 0.00 | 88 | 1008.0 |
| 20260505101629 | 71 | 56 | 2.0 | 3.0 | 0.00 | 0.00 | 0.00 | 88 | 1008.0 |
| 20260505101125 | 71 | 81 | 2.0 | 4.0 | 0.00 | 0.00 | 0.00 | 88 | 1008.1 |
| 20260505100621 | 71 | 78 | 2.0 | 4.0 | 0.00 | 0.00 | 0.00 | 88 | 1008.0 |
| 20260505100119 | 71 | 100 | 2.0 | 4.0 | 0.00 | 0.00 | 0.00 | 87 | 1008.2 |
| 20260505095614 | 71 | 69 | 2.0 | 3.0 | 0.00 | 0.00 | 0.00 | 87 | 1008.1 |
| 20260505095111 | 71 | 86 | 2.0 | 3.0 | 0.00 | 0.00 | 0.00 | 87 | 1007.8 |
| 20260505094608 | 71 | 104 | 2.0 | 4.0 | 0.00 | 0.00 | 0.00 | 87 | 1008.0 |
| 20260505094104 | 71 | 88 | 3.0 | 3.0 | 0.00 | 0.00 | 0.00 | 87 | 1008.1 |
| 20260505093600 | 71 | 75 | 1.0 | 5.0 | 0.00 | 0.00 | 0.00 | 87 | 1008.0 |
| 20260505093058 | 71 | 73 | 2.0 | 3.0 | 0.00 | 0.00 | 0.00 | 87 | 1008.1 |
| 20260505092555 | 71 | 95 | 2.0 | 3.0 | 0.00 | 0.00 | 0.00 | 87 | 1008.2 |
| 20260505092054 | 71 | 99 | 3.0 | 5.0 | 0.00 | 0.00 | 0.00 | 87 | 1008.1 |
| 20260505091550 | 71 | 99 | 2.0 | 4.0 | 0.00 | 0.00 | 0.00 | 86 | 1007.9 |
| 20260505091049 | 71 | 58 | 2.0 | 4.0 | 0.00 | 0.00 | 0.00 | 86 | 1008.2 |
| 20260505090546 | 71 | 121 | 2.0 | 6.0 | 0.00 | 0.00 | 0.00 | 86 | 1008.4 |
| 20260505090044 | 71 | 95 | 2.0 | 2.0 | 0.00 | 0.00 | 0.00 | 86 | 1008.2 |
| 20260505085541 | 71 | 132 | 2.0 | 4.0 | 0.00 | 0.00 | 0.00 | 86 | 1008.5 |
| 20260505085039 | 71 | 74 | 2.0 | 3.0 | 0.00 | 0.00 | 0.00 | 86 | 1008.1 |
| 20260505084537 | 71 | 76 | 2.0 | 4.0 | 0.00 | 0.00 | 0.00 | 87 | 1008.2 |
| 20260505084035 | 71 | 108 | 2.0 | 3.0 | 0.00 | 0.00 | 0.00 | 87 | 1008.3 |
| 20260505083532 | 71 | 105 | 2.0 | 5.0 | 0.00 | 0.00 | 0.00 | 87 | 1008.3 |
| 20260505083028 | 71 | 44 | 3.0 | 4.0 | 0.00 | 0.00 | 0.00 | 87 | 1008.3 |
| 20260505082524 | 71 | 48 | 1.0 | 8.0 | 0.00 | 0.00 | 0.00 | 87 | 1008.4 |
| 20260505082021 | 71 | 89 | 3.0 | 4.0 | 0.00 | 0.00 | 0.00 | 87 | 1008.8 |
| 20260505081518 | 71 | 83 | 2.0 | 4.0 | 0.00 | 0.00 | 0.00 | 87 | 1008.5 |
| 20260505081015 | 71 | 94 | 3.0 | 5.0 | 0.00 | 0.00 | 0.00 | 87 | 1008.7 |
| 20260505080511 | 71 | 81 | 3.0 | 3.0 | 0.00 | 0.00 | 0.00 | 87 | 1008.8 |
| 20260505080007 | 71 | 99 | 0.0 | 4.0 | 0.00 | 0.00 | 0.00 | 87 | 1009.0 |
| 20260505075504 | 71 | 80 | 2.0 | 2.0 | 0.00 | 0.00 | 0.00 | 86 | 1008.7 |
| 20260505075000 | 71 | 96 | 2.0 | 5.0 | 0.00 | 0.00 | 0.00 | 86 | 1009.0 |
| 20260505074458 | 71 | 74 | 3.0 | 3.0 | 0.00 | 0.00 | 0.00 | 86 | 1009.0 |
| 20260505073955 | 71 | 84 | 3.0 | 4.0 | 0.00 | 0.00 | 0.00 | 86 | 1009.1 |
| 20260505073452 | 71 | 96 | 1.0 | 5.0 | 0.00 | 0.00 | 0.00 | 86 | 1009.1 |
| 20260505072950 | 71 | 89 | 0.0 | 4.0 | 0.00 | 0.00 | 0.00 | 85 | 1009.2 |
| 20260505072446 | 71 | 60 | 3.0 | 3.0 | 0.00 | 0.00 | 0.00 | 86 | 1009.2 |
| 20260505071942 | 71 | 44 | 2.0 | 3.0 | 0.00 | 0.00 | 0.00 | 85 | 1009.1 |
| 20260505071438 | 71 | 108 | 0.0 | 4.0 | 0.00 | 0.00 | 0.00 | 85 | 1009.3 |
| 20260505070936 | 71 | 149 | 0.0 | 3.0 | 0.00 | 0.00 | 0.00 | 85 | 1009.4 |
| 20260505070433 | 71 | 114 | 3.0 | 4.0 | 0.00 | 0.00 | 0.00 | 85 | 1009.3 |
| 20260505065928 | 71 | 136 | 2.0 | 3.0 | 0.00 | 0.00 | 0.00 | 85 | 1009.4 |
| 20260505065425 | 71 | 124 | 2.0 | 4.0 | 0.00 | 0.00 | 0.00 | 85 | 1009.5 |
| 20260505064922 | 71 | 67 | 2.0 | 2.0 | 0.00 | 0.00 | 0.00 | 85 | 1009.6 |
| 20260505064419 | 71 | 73 | 1.0 | 3.0 | 0.00 | 0.00 | 0.00 | 85 | 1009.5 |
| 20260505063917 | 71 | 52 | 2.0 | 4.0 | 0.00 | 0.00 | 0.00 | 85 | 1009.6 |
| 20260505063413 | 71 | 77 | 2.0 | 5.0 | 0.00 | 0.00 | 0.00 | 85 | 1009.7 |
| 20260505062910 | 71 | 80 | 3.0 | 3.0 | 0.00 | 0.00 | 0.00 | 85 | 1009.8 |
| 20260505062407 | 71 | 100 | 3.0 | 4.0 | 0.00 | 0.00 | 0.00 | 85 | 1009.8 |
| 20260505061904 | 71 | 54 | 5.0 | 5.0 | 0.00 | 0.00 | 0.00 | 85 | 1009.9 |
| 20260505061402 | 71 | 71 | 1.0 | 4.0 | 0.00 | 0.00 | 0.00 | 85 | 1010.0 |
| 20260505060859 | 71 | 114 | 3.0 | 5.0 | 0.00 | 0.00 | 0.00 | 84 | 1010.0 |
| 20260505060356 | 71 | 43 | 6.0 | 6.0 | 0.00 | 0.00 | 0.00 | 84 | 1009.9 |
| 20260505055852 | 72 | 99 | 3.0 | 4.0 | 0.00 | 0.00 | 0.00 | 84 | 1009.9 |
| 20260505055348 | 72 | 120 | 1.0 | 4.0 | 0.00 | 0.00 | 0.00 | 84 | 1010.0 |
| 20260505054845 | 72 | 97 | 1.0 | 3.0 | 0.00 | 0.00 | 0.00 | 84 | 1009.9 |
| 20260505054343 | 72 | 40 | 3.0 | 5.0 | 0.00 | 0.00 | 0.00 | 84 | 1010.0 |
| 20260505053841 | 72 | 61 | 3.0 | 3.0 | 0.00 | 0.00 | 0.00 | 83 | 1010.0 |
| 20260505053337 | 72 | 61 | 2.0 | 6.0 | 0.00 | 0.00 | 0.00 | 83 | 1009.8 |
| 20260505052834 | 72 | 84 | 1.0 | 3.0 | 0.00 | 0.00 | 0.00 | 83 | 1009.8 |
| 20260505052331 | 72 | 70 | 2.0 | 2.0 | 0.00 | 0.00 | 0.00 | 83 | 1009.9 |
| 20260505051828 | 72 | 72 | 2.0 | 4.0 | 0.00 | 0.00 | 0.00 | 83 | 1009.9 |
| 20260505051325 | 72 | 144 | 2.0 | 4.0 | 0.00 | 0.00 | 0.00 | 83 | 1009.8 |
| 20260505050823 | 72 | 136 | 2.0 | 4.0 | 0.00 | 0.00 | 0.00 | 83 | 1009.7 |
| 20260505050322 | 72 | 13 | 1.0 | 4.0 | 0.00 | 0.00 | 0.00 | 83 | 1009.8 |
| 20260505041752 | 73 | 103 | 0.0 | 3.0 | 0.00 | 0.00 | 0.00 | 81 | 1009.6 |
| 20260505041249 | 73 | 60 | 5.0 | 5.0 | 0.00 | 0.00 | 0.00 | 81 | 1009.8 |
| 20260505040746 | 73 | 77 | 2.0 | 5.0 | 0.00 | 0.00 | 0.00 | 81 | 1009.7 |
| 20260505040244 | 73 | 71 | 2.0 | 2.0 | 0.00 | 0.00 | 0.00 | 81 | 1009.9 |
| 20260505035740 | 73 | 44 | 2.0 | 4.0 | 0.00 | 0.00 | 0.00 | 81 | 1009.9 |
| 20260505035236 | 74 | 69 | 2.0 | 9.0 | 0.00 | 0.00 | 0.00 | 80 | 1009.8 |
| 20260505034733 | 74 | 102 | 3.0 | 4.0 | 0.00 | 0.00 | 0.00 | 80 | 1009.8 |
| 20260505034230 | 74 | 60 | 2.0 | 4.0 | 0.00 | 0.00 | 0.00 | 79 | 1009.8 |
| 20260505033727 | 74 | 68 | 2.0 | 4.0 | 0.00 | 0.00 | 0.00 | 79 | 1009.8 |
| 20260505033225 | 74 | 64 | 2.0 | 4.0 | 0.00 | 0.00 | 0.00 | 79 | 1009.7 |
| 20260505032722 | 74 | 8 | 5.0 | 6.0 | 0.00 | 0.00 | 0.00 | 79 | 1009.9 |
| 20260505032218 | 74 | 38 | 2.0 | 4.0 | 0.00 | 0.00 | 0.00 | 78 | 1009.7 |
| 20260505031716 | 75 | 82 | 2.0 | 4.0 | 0.00 | 0.00 | 0.00 | 78 | 1009.8 |
| 20260505031212 | 75 | 47 | 2.0 | 4.0 | 0.00 | 0.00 | 0.00 | 78 | 1009.7 |
| 20260505030709 | 75 | 73 | 2.0 | 3.0 | 0.00 | 0.00 | 0.00 | 78 | 1009.8 |
| 20260505030205 | 75 | 50 | 2.0 | 6.0 | 0.00 | 0.00 | 0.00 | 77 | 1009.9 |
| 20260505025701 | 75 | 83 | 0.0 | 4.0 | 0.00 | 0.00 | 0.00 | 77 | 1009.7 |
| 20260505025159 | 75 | 92 | 2.0 | 2.0 | 0.00 | 0.00 | 0.00 | 77 | 1009.9 |
| 20260505024657 | 75 | 81 | 1.0 | 2.0 | 0.00 | 0.00 | 0.00 | 76 | 1009.7 |
| 20260505024154 | 75 | 129 | 0.0 | 3.0 | 0.00 | 0.00 | 0.00 | 76 | 1009.7 |
| 20260505023651 | 75 | 66 | 2.0 | 2.0 | 0.00 | 0.00 | 0.00 | 76 | 1009.9 |
| 20260505023149 | 76 | 66 | 2.0 | 2.0 | 0.00 | 0.00 | 0.00 | 76 | 1009.7 |
| 20260505022646 | 76 | 160 | 1.0 | 2.0 | 0.00 | 0.00 | 0.00 | 75 | 1009.6 |
| 20260505022143 | 76 | 119 | 2.0 | 2.0 | 0.00 | 0.00 | 0.00 | 75 | 1009.6 |
| 20260505021639 | 76 | 105 | 0.0 | 6.0 | 0.00 | 0.00 | 0.00 | 74 | 1009.6 |
| 20260505021136 | 76 | 82 | 2.0 | 4.0 | 0.00 | 0.00 | 0.00 | 74 | 1009.6 |
| 20260505020632 | 76 | 74 | 0.0 | 2.0 | 0.00 | 0.00 | 0.00 | 74 | 1009.5 |
| 20260505020128 | 76 | 106 | 1.0 | 2.0 | 0.00 | 0.00 | 0.00 | 73 | 1009.6 |
| 20260505015625 | 76 | 117 | 2.0 | 2.0 | 0.00 | 0.00 | 0.00 | 73 | 1009.6 |
| 20260505015122 | 77 | 113 | 0.0 | 4.0 | 0.00 | 0.00 | 0.00 | 72 | 1009.5 |
| 20260505014618 | 77 | 159 | 2.0 | 3.0 | 0.00 | 0.00 | 0.00 | 71 | 1009.4 |
| 20260505014116 | 77 | 97 | 1.0 | 3.0 | 0.00 | 0.00 | 0.00 | 71 | 1009.5 |
| 20260505013613 | 77 | 93 | 0.0 | 2.0 | 0.00 | 0.00 | 0.00 | 70 | 1009.4 |
| 20260505013110 | 77 | 67 | 1.0 | 2.0 | 0.00 | 0.00 | 0.00 | 71 | 1009.4 |
| 20260505012608 | 77 | 123 | 1.0 | 6.0 | 0.00 | 0.00 | 0.00 | 69 | 1009.4 |
| 20260505012105 | 77 | 89 | 0.0 | 2.0 | 0.00 | 0.00 | 0.00 | 68 | 1009.5 |
| 20260505011600 | 77 | 128 | 2.0 | 3.0 | 0.00 | 0.00 | 0.00 | 67 | 1009.5 |
| 20260505011058 | 78 | 87 | 2.0 | 2.0 | 0.00 | 0.00 | 0.00 | 66 | 1009.2 |
| 20260505010553 | 78 | 121 | 1.0 | 2.0 | 0.00 | 0.00 | 0.00 | 66 | 1009.2 |
| 20260505010050 | 78 | 95 | 2.0 | 3.0 | 0.00 | 0.00 | 0.00 | 65 | 1009.2 |
| 20260505005546 | 78 | 101 | 0.0 | 2.0 | 0.00 | 0.00 | 0.00 | 64 | 1009.1 |
| 20260505005044 | 79 | 142 | 1.0 | 2.0 | 0.00 | 0.00 | 0.00 | 64 | 1009.3 |
| 20260505004540 | 79 | 128 | 0.0 | 2.0 | 0.00 | 0.00 | 0.00 | 64 | 1009.3 |
| 20260505004037 | 79 | 85 | 1.0 | 3.0 | 0.00 | 0.00 | 0.00 | 63 | 1009.1 |
| 20260505003535 | 79 | 153 | 2.0 | 3.0 | 0.00 | 0.00 | 0.00 | 62 | 1009.3 |
| 20260505003032 | 79 | 187 | 0.0 | 5.0 | 0.00 | 0.00 | 0.00 | 62 | 1009.2 |
| 20260505002532 | 80 | 102 | 4.0 | 5.0 | 0.00 | 0.00 | 0.00 | 62 | 1009.2 |
| 20260505002031 | 80 | 98 | 1.0 | 4.0 | 0.00 | 0.00 | 0.00 | 61 | 1009.0 |
| 20260505001528 | 80 | 245 | 2.0 | 4.0 | 0.00 | 0.00 | 0.00 | 61 | 1008.9 |
| 20260505001025 | 80 | 99 | 1.0 | 3.0 | 0.00 | 0.00 | 0.00 | 61 | 1008.9 |